Temperature
31 32 32 32 32 32 32 31 31 30 29 29 29 29 28 27 27 26 26 26 25 24 23 23 22 22 21 21 21 20 20 19 19 19 18 18 18 18 18 17 17 17 17 17
30 32 32 31 32 32 32 32 31 31 30 30 29 28 28 27 27 26 25 25 24 23 23 22 22 21 21 21 20 20 20 19 19 18 18 18 18 18 17 17 17 17 16 16
29 30 31 30 31 32 31 32 31 30 30 30 28 28 27 27 26 26 25 24 24 23 23 22 21 21 20 20 20 20 19 19 18 18 18 18 18 17 17 17 17 16 16 16
28 28 27 30 32 32 31 31 31 30 30 29 28 27 27 26 26 25 25 24 23 23 22 22 21 21 20 20 19 19 19 18 18 18 18 18 17 17 17 17 16 16 16 16
28 27 28 30 30 30 29 29 30 29 29 28 28 27 26 25 25 24 24 24 23 23 22 21 21 20 20 19 19 19 18 18 18 18 17 17 17 17 16 16 16 16 16 16
27 26 26 28 29 30 29 28 29 29 28 27 27 26 25 25 24 24 24 23 22 22 21 21 20 20 19 19 18 18 18 18 17 17 17 17 17 16 16 16 16 16 16 16
26 26 27 28 28 29 27 26 27 27 27 26 26 25 24 24 23 23 22 22 22 21 21 20 19 19 19 18 18 18 17 17 17 17 17 16 16 16 16 16 15 15 15 15
26 25 25 27 27 26 25 26 26 26 25 25 24 24 23 23 22 22 22 21 21 20 20 19 19 18 18 17 17 17 17 17 16 16 16 16 16 16 15 15 15 15 15 15
25 25 25 25 25 25 25 25 25 25 24 24 24 23 23 22 22 21 21 20 20 19 19 18 18 17 17 17 16 16 16 16 16 16 16 16 15 15 15 15 15 15 15 15
25 25 25 24 24 24 24 24 24 24 24 23 23 23 22 21 21 21 20 20 19 19 18 17 17 17 16 16 16 16 16 15 15 15 15 15 15 15 14 14 14 14 14 14
24 24 24 24 24 24 23 23 23 23 23 23 23 22 21 21 20 20 19 19 18 18 17 17 16 16 16 16 16 15 15 15 15 15 15 15 15 15 14 14 14 14 14 14
23 23 23 23 23 23 22 22 22 22 22 22 21 21 21 20 19 19 18 18 17 17 17 16 16 15 15 15 15 15 15 15 15 15 15 15 15 15 15 14 14 14 14 14
22 22 22 22 22 22 21 21 21 21 20 20 20 20 19 19 18 18 17 17 17 16 16 16 15 15 15 15 15 15 14 14 14 14 14 14 14 14 14 14 14 14 14 14
21 21 21 21 21 21 21 20 20 20 20 19 19 19 19 18 17 17 17 16 16 16 15 15 15 15 14 14 14 14 14 14 14 14 14 14 14 14 14 14 14 14 14 13
20 20 20 20 20 20 20 19 19 19 19 18 18 18 18 17 17 16 16 16 15 15 15 14 14 14 14 14 14 14 14 14 14 14 14 14 14 14 14 14 14 13 13 13
20 20 20 19 19 19 19 18 18 18 18 17 17 17 16 16 16 15 15 15 15 14 14 14 14 13 13 13 13 13 13 14 14 14 14 14 14 14 14 14 13 13 13 13
19 19 19 19 19 18 18 18 17 17 17 17 16 16 16 15 15 15 14 14 14 14 14 13 13 13 13 13 13 13 13 13 13 13 13 13 13 13 13 13 13 13 13 13
18 18 18 18 18 18 17 17 17 17 16 16 16 15 15 15 15 14 14 14 14 13 13 13 13 13 13 12 12 13 13 13 13 13 13 13 13 13 13 13 13 13 13 13
18 18 17 17 17 17 17 16 16 16 16 15 15 15 15 14 14 14 14 13 13 13 13 13 13 12 12 12 12 13 13 13 13 13 13 13 13 13 13 13 13 13 12 12
17 17 17 16 16 16 16 16 15 15 15 15 15 14 14 14 14 13 13 13 13 13 13 12 12 12 12 12 12 12 13 13 13 13 13 13 13 13 12 12 12 12 12 12
16 16 16 16 15 15 15 15 15 15 14 14 14 14 14 13 13 13 13 13 13 13 13 12 12 12 12 12 12 12 12 12 12 12 12 12 12 12 12 12 12 12 12 12
15 15 15 15 15 15 14 14 14 14 14 14 13 13 13 13 13 13 13 13 13 13 12 12 12 12 12 12 12 12 12 12 12 12 12 12 12 12 12 12 11 11 11 11
15 15 14 14 14 14 14 14 14 14 13 13 13 13 13 13 13 13 12 12 12 12 12 12 12 12 12 12 12 12 12 12 12 12 11 11 11 11 11 11 11 11 11 11
14 14 13 13 13 13 13 13 13 13 13 13 13 13 13 13 13 13 12 12 12 12 12 12 12 12 12 12 12 12 12 11 11 11 11 11 11 11 11 11 10 10 10 10
13 13 13 13 13 13 13 13 13 13 13 13 13 13 13 12 12 12 12 12 12 12 11 11 11 11 11 11 11 11 11 11 11 11 11 10 10 10 10 10 10 10 10 10
13 13 13 13 13 13 13 13 13 13 12 12 12 12 12 12 12 12 12 11 11 11 11 11 11 11 11 11 11 11 11 11 11 10 10 10 10 10 10 10 10 10 10 10
13 13 13 13 13 13 12 12 12 12 12 12 12 11 12 12 12 12 11 11 11 11 11 11 11 11 11 11 11 11 11 10 10 10 10 10 9 9 9 9 9 9 9 9
Wind_Speed
15 15 13 12 14 14 13 12 10 7 5 6 5 3 4 7 7 6 6 7 6 7 6 6 5 5 5 5 5 5 6 6 5 4 3 3 3 3 3 3 4 3 3 3
16 17 15 14 14 15 13 12 11 9 4 5 5 4 4 6 7 7 7 6 6 7 7 7 5 5 5 4 4 4 4 5 5 4 4 3 3 3 3 3 3 3 3 3
14 13 14 16 12 11 10 10 9 8 3 6 6 3 4 5 6 7 6 6 6 6 7 7 6 5 5 4 4 4 4 4 4 4 3 3 4 3 3 3 3 3 3 3
12 12 15 11 6 6 5 5 3 1 2 6 7 6 5 5 5 5 5 6 6 5 4 6 6 6 5 5 4 4 3 3 3 3 3 3 3 2 2 2 3 3 4 4
10 12 13 9 6 6 6 3 1 2 3 4 7 6 6 6 6 5 5 5 5 5 5 5 4 4 4 4 4 4 3 3 2 2 1 2 2 2 2 2 3 4 3 3
11 12 12 7 4 5 5 4 1 3 3 2 4 4 4 5 6 4 5 6 5 4 4 5 4 4 3 3 3 3 2 2 2 2 2 2 2 2 2 2 4 4 3 3
13 12 8 4 3 4 5 1 2 3 4 3 2 3 4 3 4 5 5 5 5 4 4 4 4 4 3 2 1 1 1 1 1 1 2 2 2 2 2 3 4 4 4 4
11 11 6 5 1 1 1 3 3 4 5 5 5 5 4 4 5 5 5 5 4 4 4 4 4 3 2 1 1 1 0 0 1 1 3 2 2 2 3 4 4 5 5 4
5 3 2 5 5 4 3 3 3 4 4 4 4 4 5 4 5 5 5 5 4 4 4 4 3 2 2 1 1 0 0 1 1 2 2 2 3 3 3 4 4 4 3 3
4 1 2 3 4 5 5 3 3 3 4 3 3 4 5 5 4 4 4 3 3 3 3 3 2 2 2 1 1 0 1 1 2 2 2 2 2 3 3 3 3 3 3 3
3 1 1 2 3 4 4 4 4 4 3 3 4 5 4 3 3 4 3 3 3 2 2 2 2 2 2 1 0 1 2 2 3 3 3 2 2 2 3 2 2 3 3 3
3 1 1 1 3 3 4 4 5 4 4 4 3 4 3 3 4 3 3 3 2 2 2 2 2 1 1 0 0 2 2 2 3 3 2 2 1 1 1 1 0 1 2 2
3 2 2 0 2 2 3 3 4 4 3 3 3 3 3 3 3 3 3 2 2 1 2 2 1 1 1 0 1 1 2 3 3 3 3 2 2 2 2 1 1 1 3 3
3 2 1 0 1 2 3 3 3 3 3 2 2 2 3 3 3 3 2 1 1 1 1 1 1 1 2 1 1 2 3 2 3 3 3 3 3 4 3 3 3 3 3 5
2 1 1 1 2 2 3 2 2 2 3 3 2 3 3 3 2 2 1 1 1 1 0 0 1 2 2 2 2 3 4 2 2 3 4 3 4 4 4 4 3 3 2 3
2 1 2 1 1 2 2 2 2 2 2 3 3 3 3 2 1 1 1 1 0 0 0 0 0 1 2 3 3 3 3 3 4 4 4 4 4 4 4 3 3 2 2 2
2 2 3 3 1 1 1 1 2 2 3 3 3 2 1 1 1 0 0 1 0 0 1 1 1 1 2 4 5 4 4 4 5 5 4 4 4 4 4 4 3 3 2 2
3 3 2 1 1 1 0 0 1 2 2 2 2 1 1 1 1 1 1 1 1 1 1 1 1 2 3 4 4 4 4 4 4 4 3 3 4 4 4 4 4 3 3 2
2 2 2 1 1 1 0 1 1 1 1 1 2 2 2 2 1 1 1 2 2 2 1 1 1 3 3 2 4 4 5 5 4 4 4 4 5 4 4 4 4 3 3 2
2 2 2 1 1 2 1 1 1 2 2 2 2 2 2 2 2 2 2 3 2 1 1 1 2 4 3 2 4 5 6 5 5 4 4 4 4 4 4 4 4 3 3 3
1 1 0 0 1 1 2 2 2 2 2 2 2 2 2 3 3 3 3 3 1 1 1 1 3 3 3 3 5 6 5 5 4 4 4 4 4 4 4 4 4 3 3 3
2 1 1 1 0 1 1 2 1 1 2 2 3 3 3 3 3 3 3 3 2 1 2 3 2 2 3 5 5 5 5 5 4 3 3 3 3 3 3 3 3 3 3 3
1 1 1 1 1 2 2 2 2 2 2 2 3 3 4 3 3 3 3 2 1 1 2 2 1 1 3 5 5 5 4 4 4 3 3 3 3 3 3 3 3 3 3 3
1 1 1 2 2 2 3 3 3 2 2 3 3 3 3 3 2 2 1 0 1 1 1 0 2 2 4 5 5 4 4 4 3 3 3 3 3 3 3 3 3 2 2 3
1 1 2 2 3 3 3 2 2 2 2 2 3 2 3 2 1 1 1 1 1 0 1 2 3 4 4 5 3 3 3 3 3 3 3 3 3 3 2 3 3 3 2 2
1 2 2 2 3 3 3 2 2 2 2 2 2 3 2 1 1 1 0 0 1 2 2 2 2 4 4 4 3 3 2 2 2 1 2 2 2 2 2 2 3 2 2 1
2 2 1 2 2 2 2 2 2 2 2 2 2 2 2 1 1 1 1 1 1 2 2 2 2 2 2 1 2 1 1 0 1 1 1 1 1 1 2 2 2 2 2 2
Wind_Direction
265 267 262 259 249 248 248 258 265 259 197 180 179 170 130 126 134 134 134 139 134 130 131 124 129 136 144 152 147 154 158 162 164 168 174 175 176 180 186 198 204 202 212 221
267 265 262 261 253 248 242 247 252 257 231 138 137 134 131 129 136 137 136 144 139 134 130 130 133 135 131 134 142 147 152 152 154 164 172 177 185 187 191 198 209 208 220 232
270 270 267 261 256 245 240 247 252 255 197 132 125 127 127 138 137 132 137 134 134 138 147 146 147 136 133 128 130 133 138 141 153 164 179 190 204 196 202 206 215 223 226 229
266 272 259 257 266 264 249 250 262 70 105 125 119 107 98 100 99 107 121 123 128 135 136 136 141 147 149 144 137 135 136 141 156 178 185 189 196 208 220 221 224 231 233 227
257 260 258 257 256 260 249 240 254 123 113 135 131 119 101 95 94 100 109 107 118 127 123 116 120 135 141 147 141 142 147 159 170 174 198 201 199 211 221 232 240 240 233 226
249 258 260 258 266 275 243 225 19 103 134 154 141 132 114 104 98 94 102 111 115 116 114 113 115 127 138 149 146 155 156 167 169 186 219 228 225 235 243 254 257 252 249 246
249 252 255 309 322 291 254 205 44 57 94 115 94 109 118 121 106 96 95 95 102 107 107 103 110 119 128 128 137 133 120 132 166 206 241 235 236 248 252 256 260 256 255 253
243 248 251 338 341 339 47 77 69 62 67 75 89 100 113 131 121 112 107 98 95 91 90 86 89 105 119 123 91 90 128 203 224 236 263 267 245 250 256 258 259 255 252 252
240 229 70 28 54 68 66 65 60 68 75 88 97 112 110 99 100 104 100 98 93 94 92 90 96 115 134 111 96 84 20 277 259 253 253 261 257 252 249 248 251 252 249 251
254 154 68 48 45 41 38 37 42 73 88 105 120 122 116 110 108 109 97 90 93 103 103 99 98 96 91 99 117 152 244 257 258 245 240 245 248 253 254 259 262 265 271 263
250 260 257 10 31 27 34 26 33 60 72 80 111 117 116 114 108 105 104 90 81 81 93 89 83 91 89 78 109 255 253 257 261 262 254 246 254 282 270 301 281 260 269 271
255 262 278 336 1 18 38 28 31 42 39 34 70 95 96 90 91 95 92 82 78 78 78 93 100 93 72 71 21 290 281 275 276 271 264 254 257 279 8 223 182 182 218 230
315 304 284 274 12 35 50 38 39 42 39 25 47 81 93 93 92 87 87 93 97 95 90 94 94 76 32 13 291 273 280 283 289 291 279 266 266 262 262 276 257 238 231 211
342 356 356 67 46 57 54 31 27 27 30 28 31 85 92 91 92 87 82 77 85 91 98 96 76 41 8 343 302 274 276 273 281 286 279 273 272 271 267 254 242 246 235 211
346 327 279 53 40 53 52 26 25 28 21 39 48 72 78 71 71 59 58 58 63 72 108 19 24 13 342 306 284 275 277 275 283 292 286 278 271 264 264 265 258 241 232 212
288 308 322 279 186 94 52 29 353 1 32 34 50 61 62 71 70 41 15 69 145 284 25 338 313 309 304 300 288 276 271 269 267 276 280 280 277 276 272 273 267 248 238 236
248 245 275 275 210 134 81 1 341 24 23 22 28 37 50 77 97 92 255 256 156 220 258 244 259 288 289 291 287 280 276 257 249 261 274 280 286 293 291 284 280 269 254 224
251 244 258 290 320 296 253 89 34 47 21 2 348 346 335 319 272 246 273 277 258 269 282 313 352 287 280 288 293 291 289 277 262 266 274 282 285 280 280 279 273 268 264 230
189 140 120 53 0 331 352 15 10 8 353 352 339 332 343 337 314 292 287 270 256 253 283 347 317 283 281 287 296 282 277 279 278 279 275 263 268 275 277 276 270 261 262 263
158 114 102 83 12 348 341 10 3 6 11 360 333 323 316 303 293 285 276 270 265 270 275 283 271 273 275 285 289 283 283 282 285 285 280 271 267 270 273 273 273 272 266 260
121 107 138 130 39 360 337 340 358 353 344 333 315 300 291 289 280 270 266 268 278 317 291 254 259 278 300 306 282 280 281 284 283 283 284 284 281 284 288 293 290 288 286 284
118 95 62 66 47 334 333 332 329 317 311 312 307 302 296 289 279 267 264 270 249 185 251 264 271 0 336 305 286 286 289 293 296 300 296 291 289 287 288 291 293 295 298 292
67 48 29 358 323 312 318 320 316 309 299 297 295 288 285 284 275 269 272 272 258 228 266 281 40 49 323 293 288 289 297 305 309 304 297 293 288 287 291 290 290 298 312 310
32 39 359 328 315 306 301 299 304 300 286 277 275 278 282 279 291 316 321 133 105 189 278 242 167 244 282 282 285 296 304 307 311 309 307 312 312 305 302 300 300 299 298 298
326 334 325 313 302 296 291 287 290 287 283 298 307 318 305 299 289 323 36 40 74 226 281 249 230 247 267 279 292 307 308 316 317 323 327 324 320 319 325 321 321 325 328 328
250 267 283 281 291 301 303 306 302 305 304 319 335 345 349 1 31 29 104 210 333 313 302 287 250 243 261 278 295 303 309 318 324 330 326 312 313 319 325 320 319 317 325 336
260 267 270 277 286 300 314 316 317 320 320 326 325 326 332 334 346 357 1 42 19 321 314 300 286 258 266 297 305 302 294 310 342 341 339 347 334 323 315 315 316 322 337 353
Height
1442 1437 1435 1439 1440 1439 1443 1445 1453 1452 1455 1453 1452 1454 1456 1459 1462 1466 1469 1473 1476 1479 1482 1485 1488 1490 1492 1494 1495 1496 1498 1499 1500 1501 1502 1502 1503 1504 1504 1505 1505 1506 1506 1506
1446 1437 1435 1438 1437 1435 1437 1439 1443 1445 1448 1446 1450 1453 1456 1459 1462 1466 1470 1474 1476 1479 1481 1484 1487 1489 1490 1492 1493 1495 1496 1497 1498 1499 1500 1501 1501 1502 1502 1503 1503 1503 1504 1504
1454 1441 1440 1446 1434 1433 1436 1435 1439 1446 1446 1446 1451 1455 1457 1460 1462 1466 1470 1473 1476 1478 1480 1482 1484 1487 1489 1490 1491 1493 1494 1495 1496 1497 1498 1499 1499 1500 1500 1500 1501 1501 1501 1501
1454 1453 1465 1442 1427 1429 1433 1436 1436 1440 1442 1446 1451 1456 1459 1461 1463 1467 1471 1473 1476 1478 1480 1482 1484 1486 1488 1489 1490 1491 1492 1494 1495 1495 1496 1496 1497 1497 1497 1498 1498 1498 1498 1498
1455 1459 1452 1438 1431 1433 1438 1441 1437 1441 1445 1448 1452 1456 1461 1463 1466 1469 1472 1474 1476 1478 1479 1481 1483 1484 1486 1487 1489 1490 1491 1492 1493 1493 1494 1494 1494 1494 1495 1495 1495 1495 1495 1495
1453 1462 1463 1445 1434 1433 1437 1447 1441 1443 1447 1450 1452 1458 1463 1464 1466 1469 1471 1474 1476 1478 1479 1480 1482 1484 1485 1486 1487 1488 1489 1490 1491 1491 1491 1491 1491 1492 1492 1492 1492 1492 1492 1492
1454 1457 1450 1439 1435 1436 1451 1454 1447 1447 1450 1452 1455 1459 1463 1465 1467 1470 1472 1474 1476 1477 1479 1479 1481 1482 1483 1484 1485 1486 1487 1488 1488 1489 1489 1489 1489 1489 1489 1489 1489 1489 1488 1489
1453 1458 1458 1441 1440 1446 1451 1448 1449 1450 1452 1455 1457 1459 1463 1465 1467 1470 1472 1474 1476 1476 1477 1478 1479 1480 1481 1482 1483 1484 1485 1485 1486 1486 1487 1487 1486 1486 1486 1486 1486 1486 1486 1485
1448 1452 1450 1447 1446 1449 1450 1451 1452 1453 1455 1456 1458 1460 1463 1465 1467 1470 1472 1474 1475 1476 1476 1477 1478 1479 1479 1480 1481 1482 1482 1483 1483 1483 1483 1484 1483 1483 1483 1483 1483 1483 1483 1483
1446 1446 1447 1449 1449 1450 1451 1453 1453 1454 1456 1457 1459 1461 1464 1466 1468 1470 1471 1473 1474 1475 1476 1476 1477 1477 1478 1479 1479 1480 1480 1480 1480 1480 1480 1480 1480 1481 1481 1481 1481 1480 1480 1480
1448 1448 1449 1450 1451 1452 1453 1453 1454 1455 1456 1457 1458 1461 1463 1466 1468 1469 1471 1472 1473 1474 1475 1475 1476 1476 1477 1477 1477 1478 1478 1478 1478 1478 1478 1477 1477 1478 1478 1477 1478 1478 1477 1477
1450 1450 1450 1452 1452 1453 1454 1455 1456 1457 1457 1458 1459 1461 1463 1465 1467 1468 1470 1471 1472 1473 1474 1474 1475 1475 1475 1475 1475 1475 1475 1475 1475 1475 1476 1475 1475 1475 1474 1474 1474 1474 1473 1473
1450 1450 1451 1452 1453 1455 1455 1457 1457 1459 1459 1459 1461 1462 1463 1465 1467 1468 1469 1470 1471 1472 1472 1473 1473 1473 1473 1473 1473 1473 1473 1473 1473 1473 1473 1473 1472 1472 1471 1471 1471 1470 1470 1470
1451 1451 1452 1453 1454 1455 1456 1457 1458 1459 1460 1461 1462 1462 1463 1465 1466 1467 1468 1469 1470 1470 1471 1471 1471 1471 1471 1471 1470 1470 1471 1471 1471 1471 1471 1470 1470 1470 1469 1468 1467 1467 1467 1467
1451 1452 1453 1454 1455 1456 1457 1457 1458 1459 1459 1460 1461 1462 1463 1464 1465 1466 1467 1467 1468 1469 1469 1469 1469 1469 1469 1468 1468 1468 1468 1468 1468 1468 1468 1468 1467 1467 1466 1466 1465 1464 1464 1464
1452 1452 1453 1454 1456 1456 1457 1458 1459 1459 1459 1460 1461 1462 1463 1463 1464 1465 1465 1465 1466 1467 1467 1467 1467 1466 1466 1466 1466 1466 1466 1466 1466 1466 1465 1465 1465 1464 1464 1463 1463 1462 1461 1461
1452 1453 1454 1454 1455 1457 1458 1458 1459 1459 1459 1460 1460 1461 1462 1462 1463 1464 1464 1465 1465 1465 1465 1465 1464 1464 1464 1464 1464 1464 1464 1463 1463 1463 1463 1462 1462 1462 1461 1460 1460 1459 1459 1458
1451 1452 1454 1455 1456 1457 1458 1459 1459 1459 1459 1459 1460 1460 1461 1461 1462 1463 1463 1463 1463 1463 1463 1463 1462 1462 1462 1461 1461 1461 1461 1461 1461 1460 1460 1459 1459 1459 1458 1458 1457 1457 1456 1456
1451 1453 1455 1456 1457 1457 1457 1458 1459 1459 1459 1459 1460 1460 1460 1461 1461 1461 1461 1461 1461 1461 1461 1461 1460 1460 1459 1459 1459 1459 1459 1458 1458 1457 1457 1456 1456 1455 1455 1455 1454 1454 1453 1453
1452 1453 1454 1456 1457 1457 1458 1458 1458 1459 1459 1459 1459 1459 1459 1460 1460 1459 1459 1459 1459 1459 1458 1458 1458 1457 1457 1457 1457 1456 1456 1455 1455 1454 1454 1453 1453 1452 1452 1452 1451 1451 1450 1449
1452 1453 1454 1455 1456 1457 1458 1458 1458 1458 1458 1458 1458 1458 1458 1457 1457 1457 1457 1457 1456 1456 1456 1456 1455 1455 1455 1454 1454 1454 1453 1453 1452 1451 1451 1450 1450 1449 1448 1448 1447 1447 1447 1446
1452 1453 1454 1455 1455 1456 1457 1457 1457 1457 1457 1457 1456 1456 1455 1455 1455 1455 1454 1454 1454 1453 1453 1453 1453 1452 1452 1452 1452 1451 1451 1450 1449 1449 1448 1447 1446 1446 1445 1444 1444 1443 1443 1443
1451 1452 1454 1455 1455 1455 1455 1455 1455 1455 1455 1455 1454 1454 1453 1453 1452 1452 1451 1451 1451 1451 1450 1450 1450 1449 1449 1449 1449 1449 1448 1447 1446 1446 1445 1444 1443 1442 1442 1441 1440 1440 1439 1439
1451 1452 1453 1453 1454 1453 1453 1453 1453 1453 1453 1453 1452 1452 1451 1450 1450 1450 1449 1449 1448 1448 1448 1448 1448 1447 1447 1447 1446 1446 1445 1445 1444 1443 1442 1441 1441 1440 1439 1438 1437 1436 1436 1436
1451 1451 1452 1452 1453 1452 1452 1452 1451 1451 1451 1450 1450 1449 1449 1449 1448 1448 1447 1447 1447 1447 1446 1446 1445 1445 1445 1445 1445 1444 1443 1442 1442 1441 1440 1439 1438 1437 1436 1435 1434 1433 1433 1433
1450 1450 1451 1451 1451 1451 1451 1450 1450 1449 1449 1449 1448 1447 1447 1447 1446 1446 1446 1445 1445 1445 1444 1444 1443 1443 1443 1443 1442 1442 1441 1440 1439 1438 1437 1436 1435 1434 1434 1433 1432 1431 1431 1430
1450 1450 1450 1450 1450 1450 1450 1449 1449 1448 1447 1447 1447 1446 1446 1446 1445 1445 1445 1444 1444 1443 1443 1442 1442 1442 1442 1441 1441 1440 1439 1438 1437 1436 1435 1434 1433 1432 1432 1431 1430 1429 1429 1428